Weather History for KLNP - November, 2012

Change the Weather History Date:

Friday, November 30, 2012

  Actual Average (KTRI) Record (KTRI)
Temperature  
Mean Temperature 46 °F 42 °F  
Max Temperature 55 °F 53 °F 76 °F (1991)
Min Temperature 37 °F 31 °F 10 °F (1976)
Degree Days  
Heating Degree Days 19 23  
Month to date heating degree days 551  
Since 1 July heating degree days 886  
Cooling Degree Days 0 0  
Month to date cooling degree days 1  
Year to date cooling degree days 981  
Moisture  
Dew Point 36 °F    
Average Humidity 69    
Maximum Humidity 81    
Minimum Humidity 51    
Precipitation  
Precipitation 0.00 in 0.12 in 1.80 in (2010)
Month to date precipitation 3.10  
Year to date precipitation 37.64  
Snow  
Snow 0.00 in 0.00 in - ()
Month to date snowfall 0.2  
Since 1 July snowfall 0.3  
Since 1 September snowfall 0.3  
Snow Depth -    
Sea Level Pressure  
Sea Level Pressure 30.29 in    
Wind  
Wind Speed 9 mph (SW)    
Max Wind Speed 16 mph    
Max Gust Speed 23 mph    
Visibility 10 miles    
Events      
T = Trace of Precipitation, MM = Missing Value Source: NWS Daily Summary

Daily Weather History Graph

Daily Weather History Graph

Search for Another Location

Airport or City:

Trip Planner

Search our weather history database for the weather conditions in past years. The results will help you decide how hot, cold, wet, or windy it might be!

Date:

Astronomy

Nov. 30, 2012 Rise Set
Actual Time 7:24 AM EST 5:13 PM EST
Civil Twilight 6:55 AM EST 5:42 PM EST
Nautical Twilight 6:23 AM EST 6:14 PM EST
Astronomical Twilight 5:52 AM EST 6:45 PM EST
Moon 7:07 PM EST (11/30) 8:55 AM EST (11/30)
Length of Visible Light 10h 46m
Length of Day
9h 49m
Waning Gibbous, 96% of the Moon is Illuminated
Nov 30
Waning Gibbous
Dec 6
Last Quarter
Dec 13
New
Dec 20
First Quarter
Dec 28
Full

Hourly Weather History & Observations

Time (EST) Temp. Windchill Dew Point Humidity Pressure Visibility Wind Dir Wind Speed Gust Speed Precip Events Conditions
12:15 AM 42.8 °F 37.5 °F 32.0 °F 66% 30.31 in 10.0 mi SW 9.2 mph - N/A   Clear
12:35 AM 42.8 °F 36.6 °F 32.0 °F 66% 30.31 in 10.0 mi SW 11.5 mph - N/A   Clear
12:55 AM 42.8 °F 37.0 °F 32.0 °F 66% 30.31 in 10.0 mi SW 10.4 mph - N/A   Clear
1:15 AM 42.8 °F 36.6 °F 32.0 °F 66% 30.30 in 10.0 mi SW 11.5 mph - N/A   Clear
1:35 AM 42.8 °F 37.0 °F 32.0 °F 66% 30.30 in 10.0 mi SW 10.4 mph - N/A   Clear
1:55 AM 42.8 °F 36.6 °F 32.0 °F 66% 30.30 in 10.0 mi WSW 11.5 mph - N/A   Clear
2:15 AM 42.8 °F 37.5 °F 32.0 °F 66% 30.31 in 10.0 mi SW 9.2 mph - N/A   Clear
2:35 AM 42.8 °F 38.0 °F 32.0 °F 66% 30.31 in 10.0 mi SW 8.1 mph - N/A   Clear
2:55 AM 41.0 °F 37.1 °F 32.0 °F 70% 30.31 in 10.0 mi SSW 5.8 mph - N/A   Clear
3:15 AM 39.2 °F 35.0 °F 32.0 °F 75% 30.31 in 10.0 mi SSW 5.8 mph - N/A   Clear
3:35 AM 37.4 °F 31.4 °F 32.0 °F 81% 30.31 in 10.0 mi SSW 8.1 mph - N/A   Clear
3:55 AM 39.2 °F 33.0 °F 32.0 °F 75% 30.30 in 10.0 mi SW 9.2 mph - N/A   Clear
4:15 AM 39.2 °F 34.2 °F 32.0 °F 75% 30.30 in 10.0 mi SSW 6.9 mph - N/A   Clear
4:35 AM 39.2 °F 33.6 °F 32.0 °F 75% 30.30 in 10.0 mi SW 8.1 mph - N/A   Clear
4:55 AM 39.2 °F 33.6 °F 32.0 °F 75% 30.29 in 10.0 mi SSW 8.1 mph - N/A   Clear
5:15 AM 39.2 °F 33.0 °F 32.0 °F 75% 30.30 in 10.0 mi SW 9.2 mph - N/A   Clear
5:35 AM 41.0 °F 34.3 °F 32.0 °F 70% 30.29 in 10.0 mi SW 11.5 mph - N/A   Clear
5:55 AM 39.2 °F 33.6 °F 32.0 °F 75% 30.30 in 10.0 mi SW 8.1 mph - N/A   Clear
6:15 AM 41.0 °F 34.7 °F 32.0 °F 70% 30.30 in 10.0 mi SW 10.4 mph - N/A   Clear
6:35 AM 39.2 °F 34.2 °F 32.0 °F 75% 30.30 in 10.0 mi SSW 6.9 mph - N/A   Clear
6:55 AM 37.4 °F 33.8 °F 32.0 °F 81% 30.31 in 10.0 mi SSW 4.6 mph - N/A   Clear
7:15 AM 37.4 °F 32.8 °F 32.0 °F 81% 30.31 in 10.0 mi SSW 5.8 mph - N/A   Clear
7:35 AM 37.4 °F 32.1 °F 32.0 °F 81% 30.31 in 10.0 mi SW 6.9 mph - N/A   Clear
7:55 AM 39.2 °F 34.2 °F 32.0 °F 75% 30.32 in 10.0 mi SW 6.9 mph - N/A   Clear
8:15 AM 41.0 °F 37.1 °F 32.0 °F 70% 30.32 in 10.0 mi SSW 5.8 mph - N/A   Clear
8:35 AM 42.8 °F 36.6 °F 32.0 °F 66% 30.33 in 10.0 mi SW 11.5 mph - N/A   Clear
8:55 AM 44.6 °F 40.2 °F 33.8 °F 66% 30.33 in 10.0 mi SW 8.1 mph - N/A   Clear
9:15 AM 44.6 °F 39.2 °F 33.8 °F 66% 30.34 in 10.0 mi SW 10.4 mph - N/A   Clear
9:35 AM 46.4 °F 41.5 °F 35.6 °F 66% 30.34 in 10.0 mi SW 10.4 mph 17.3 mph N/A   Clear
9:55 AM 48.2 °F - 37.4 °F 66% 30.35 in 10.0 mi WSW 11.5 mph 19.6 mph N/A   Clear
10:15 AM 48.2 °F - 37.4 °F 66% 30.34 in 10.0 mi SW 15.0 mph 19.6 mph N/A   Clear
10:35 AM 48.2 °F - 37.4 °F 66% 30.35 in 10.0 mi SW 10.4 mph 16.1 mph N/A   Clear
10:55 AM 50.0 °F - 37.4 °F 62% 30.34 in 10.0 mi SW 9.2 mph - N/A   Clear
11:15 AM 50.0 °F - 37.4 °F 62% 30.34 in 10.0 mi SW 12.7 mph - N/A   Clear
11:35 AM 50.0 °F - 39.2 °F 66% 30.33 in 10.0 mi SW 11.5 mph 19.6 mph N/A   Clear
11:55 AM 50.0 °F - 39.2 °F 66% 30.32 in 10.0 mi SW 16.1 mph 20.7 mph N/A   Clear
12:15 PM 51.8 °F - 39.2 °F 62% 30.31 in 10.0 mi SW 16.1 mph 23.0 mph N/A   Clear
12:35 PM 51.8 °F - 37.4 °F 58% 30.31 in 10.0 mi SW 13.8 mph 19.6 mph N/A   Clear
12:55 PM 53.6 °F - 37.4 °F 54% 30.30 in 10.0 mi WSW 11.5 mph - N/A   Clear
1:15 PM 53.6 °F - 37.4 °F 54% 30.29 in 10.0 mi West 9.2 mph - N/A   Clear
1:35 PM 53.6 °F - 37.4 °F 54% 30.28 in 10.0 mi WSW 9.2 mph - N/A   Clear
1:55 PM 53.6 °F - 37.4 °F 54% 30.28 in 10.0 mi SW 6.9 mph - N/A   Clear
2:15 PM 55.4 °F - 37.4 °F 51% 30.27 in 10.0 mi SW 5.8 mph - N/A   Clear
2:35 PM 55.4 °F - 37.4 °F 51% 30.26 in 10.0 mi SSW 6.9 mph - N/A   Clear
2:55 PM 55.4 °F - 37.4 °F 51% 30.25 in 10.0 mi South 4.6 mph - N/A   Clear
3:15 PM 53.6 °F - 37.4 °F 54% 30.25 in 10.0 mi South 6.9 mph - N/A   Clear
3:35 PM 53.6 °F - 37.4 °F 54% 30.24 in 10.0 mi South 9.2 mph - N/A   Clear
3:55 PM 53.6 °F - 35.6 °F 51% 30.25 in 10.0 mi South 9.2 mph - N/A   Clear
4:15 PM 51.8 °F - 35.6 °F 54% 30.25 in 10.0 mi South 8.1 mph - N/A   Clear
4:35 PM 51.8 °F - 35.6 °F 54% 30.24 in 10.0 mi South 10.4 mph - N/A   Clear
4:55 PM 50.0 °F - 35.6 °F 58% 30.24 in 10.0 mi South 6.9 mph - N/A   Clear
5:15 PM 48.2 °F - 37.4 °F 66% 30.24 in 10.0 mi South 6.9 mph - N/A   Clear
5:35 PM 46.4 °F 42.4 °F 37.4 °F 71% 30.24 in 10.0 mi South 8.1 mph - N/A   Clear
5:55 PM 46.4 °F 41.1 °F 37.4 °F 71% 30.24 in 10.0 mi SSW 11.5 mph - N/A   Clear
6:15 PM 44.6 °F 40.7 °F 37.4 °F 76% 30.25 in 10.0 mi SW 6.9 mph - N/A   Clear
6:35 PM 44.6 °F 42.2 °F 37.4 °F 76% 30.26 in 10.0 mi SSW 4.6 mph - N/A   Clear
6:55 PM 42.8 °F 39.3 °F 35.6 °F 76% 30.26 in 10.0 mi SSW 5.8 mph - N/A   Clear
7:15 PM 42.8 °F 38.6 °F 35.6 °F 76% 30.27 in 10.0 mi SSW 6.9 mph - N/A   Scattered Clouds
7:35 PM 44.6 °F 39.7 °F 37.4 °F 76% 30.27 in 10.0 mi SSW 9.2 mph 17.3 mph N/A   Mostly Cloudy
8:15 PM 44.6 °F 40.7 °F 39.2 °F 81% 30.28 in 10.0 mi SW 6.9 mph - N/A   Mostly Cloudy
8:35 PM 44.6 °F 40.2 °F 39.2 °F 81% 30.28 in 10.0 mi SW 8.1 mph - N/A   Mostly Cloudy
8:55 PM 46.4 °F 41.9 °F 41.0 °F 81% 30.28 in 10.0 mi SSW 9.2 mph 16.1 mph N/A   Overcast
9:15 PM 46.4 °F 41.9 °F 41.0 °F 81% 30.28 in 10.0 mi SW 9.2 mph - N/A   Overcast
9:35 PM 46.4 °F 41.5 °F 41.0 °F 81% 30.28 in 10.0 mi SW 10.4 mph - N/A   Overcast
9:55 PM 46.4 °F 41.9 °F 41.0 °F 81% 30.28 in 10.0 mi SSW 9.2 mph - N/A   Overcast
10:15 PM 46.4 °F 42.4 °F 41.0 °F 81% 30.28 in 10.0 mi SW 8.1 mph - N/A   Overcast
10:35 PM 46.4 °F 41.9 °F 41.0 °F 81% 30.28 in 10.0 mi SW 9.2 mph - N/A   Scattered Clouds
10:55 PM 46.4 °F 41.5 °F 41.0 °F 81% 30.28 in 10.0 mi SW 10.4 mph - N/A   Clear
11:15 PM 46.4 °F 41.5 °F 41.0 °F 81% 30.28 in 10.0 mi SW 10.4 mph - N/A   Clear
11:35 PM 46.4 °F 42.4 °F 41.0 °F 81% 30.29 in 10.0 mi SW 8.1 mph - N/A   Clear
11:55 PM 46.4 °F 41.9 °F 41.0 °F 81% 30.29 in 10.0 mi SW 9.2 mph - N/A   Clear